Satellite-Ground Cal/Val Region Overpasses Predictions

Prediction of Satellite NPP Overpassing Cal/Val Region: PacNW

Region Location: (Latitude: 10.00, Longitude: 139.50) to (Latitude: 22.70, Longitude: 165.60).

Table of predicted overpasses for the next 14.0 days since TLE Epoch: 7/25/2020
Interval Starting Time Starting Location Ending Time Ending Location
1 07/26/2020 02:10:08 ( 19.64, 165.59) 07/26/2020 02:11:00 ( 22.69, 164.84)
2 07/26/2020 03:48:54 ( 10.02, 142.48) 07/26/2020 03:52:27 ( 22.52, 139.51)
3 07/26/2020 14:39:18 ( 22.66, 165.09) 07/26/2020 14:42:53 ( 10.04, 162.09)
4 07/26/2020 16:20:48 ( 22.65, 139.71) 07/26/2020 16:21:02 ( 21.83, 139.51)
5 07/27/2020 03:29:53 ( 10.01, 147.24) 07/27/2020 03:33:29 ( 22.69, 144.22)
6 07/27/2020 16:01:47 ( 22.66, 144.47) 07/27/2020 16:05:22 ( 10.04, 141.47)
7 07/28/2020 03:10:52 ( 10.06, 151.99) 07/28/2020 03:14:27 ( 22.68, 148.98)
8 07/28/2020 15:42:45 ( 22.67, 149.23) 07/28/2020 15:46:20 ( 10.05, 146.23)
9 07/29/2020 02:51:51 ( 10.05, 156.74) 07/29/2020 02:55:26 ( 22.67, 153.74)
10 07/29/2020 15:23:44 ( 22.68, 153.99) 07/29/2020 15:27:19 ( 10.06, 150.98)
11 07/30/2020 02:32:49 ( 10.04, 161.50) 07/30/2020 02:36:24 ( 22.66, 158.50)
12 07/30/2020 15:04:42 ( 22.68, 158.75) 07/30/2020 15:08:18 ( 10.00, 155.73)
13 07/31/2020 02:14:37 ( 12.91, 165.60) 07/31/2020 02:17:23 ( 22.66, 163.26)
14 07/31/2020 03:55:18 ( 10.04, 140.88) 07/31/2020 03:56:59 ( 15.97, 139.51)
15 07/31/2020 14:45:41 ( 22.69, 163.51) 07/31/2020 14:49:17 ( 10.01, 160.49)
16 08/01/2020 03:36:16 ( 10.03, 145.64) 08/01/2020 03:39:51 ( 22.65, 142.64)
17 08/01/2020 14:29:49 ( 11.54, 165.60) 08/01/2020 14:30:15 ( 10.02, 165.24)
18 08/01/2020 16:08:09 ( 22.69, 142.89) 08/01/2020 16:11:45 ( 10.01, 139.87)
19 08/02/2020 03:17:15 ( 10.03, 150.40) 08/02/2020 03:20:50 ( 22.65, 147.40)
20 08/02/2020 15:49:08 ( 22.70, 147.65) 08/02/2020 15:52:44 ( 10.02, 144.63)
21 08/03/2020 02:58:14 ( 10.02, 155.16) 08/03/2020 03:01:49 ( 22.64, 152.15)
22 08/03/2020 15:30:07 ( 22.65, 152.39) 08/03/2020 15:33:42 ( 10.03, 149.39)
23 08/04/2020 02:39:12 ( 10.01, 159.92) 08/04/2020 02:42:48 ( 22.70, 156.90)
24 08/04/2020 15:11:06 ( 22.65, 157.15) 08/04/2020 15:14:41 ( 10.03, 154.14)
25 08/05/2020 02:20:11 ( 10.01, 164.67) 08/05/2020 02:23:47 ( 22.69, 161.65)
26 08/05/2020 14:52:04 ( 22.66, 161.90) 08/05/2020 14:55:39 ( 10.04, 158.90)
27 08/06/2020 03:42:39 ( 10.01, 144.06) 08/06/2020 03:46:15 ( 22.69, 141.04)
28 08/06/2020 14:34:17 ( 18.32, 165.60) 08/06/2020 14:36:38 ( 10.04, 163.66)
29 08/06/2020 16:14:33 ( 22.66, 141.29) 08/06/2020 16:16:38 ( 15.32, 139.51)
30 08/07/2020 03:23:38 ( 10.00, 148.81) 08/07/2020 03:27:14 ( 22.69, 145.79)
31 08/07/2020 15:55:31 ( 22.66, 146.04) 08/07/2020 15:59:06 ( 10.04, 143.04)
32 08/08/2020 03:04:36 ( 10.00, 153.57) 08/08/2020 03:08:12 ( 22.68, 150.55)
